Location: Caltech
(34.1382°N, 118.1253°W)
Time: 05:36:14
(UTC-07:00)

Daily predictions for brighter satellites

Satellite Brightness Start Highest point End
(mag) Time Altitude Azimuth Time Altitude Azimuth Time Altitude Azimuth
Cosmos 1943 Rocket 3.2 00:01:37 10° NNW 00:05:17 41° NW 00:05:17 41° NW
Atlas Centaur 2 4.3 00:22:45 10° W 00:26:16 28° W 00:26:16 28° W
CZ-2C R/B 4.2 00:31:56 10° NNE 00:34:55 28° NE 00:34:55 28° NE
Cosmos 2344 3.9 00:48:00 52° E 00:48:00 52° E 00:54:57 10° NE
NOSS 3-2 (C) 4.0 01:07:00 55° N 01:07:00 55° N 01:12:24 10° NNE
CENTAUR R/B 4.1 01:11:26 24° E 01:11:26 24° E 01:14:48 10° NE
Cosmos 2082 Rocket 3.2 01:24:59 43° NE 01:24:59 43° NE 01:28:45 10° NNE
Cosmos 2315 Rocket 4.5 01:24:52 10° N 01:30:21 55° NE 01:30:21 55° NE
Cosmos 1697 Rocket 4.2 01:26:35 10° N 01:31:26 29° ENE 01:32:00 28° ENE
Cosmos 1833 Rocket 3.5 01:38:11 46° NE 01:38:11 46° NE 01:42:07 10° NNE
CZ-4C R/B 3.6 01:38:16 30° NW 01:38:16 30° NW 01:43:06 10° NNE
CZ-2C R/B 4.1 02:01:31 41° NW 02:01:31 41° NW 02:05:14 10° NNW
Cosmos 1656 4.2 02:06:02 10° NNW 02:10:31 57° NNW 02:10:31 57° NNW
CZ-2C R/B 4.4 02:12:55 10° NNW 02:16:26 22° WNW 02:16:26 22° WNW
USA 215 3.3 02:15:24 10° NE 02:21:53 68° NW 02:22:35 63° WNW
SEDSat Delta rocket 4.5 02:27:18 49° ESE 02:27:18 49° ESE 02:32:21 10° E
Meteor 1-11 4.3 02:26:51 77° NNE 02:26:51 77° NNE 02:32:13 10° N
SL-08 R/B 4.4 02:34:51 72° WNW 02:34:51 72° WNW 02:40:43 10° N
IRAS Rocket 4.4 02:30:33 10° N 02:35:30 64° NW 02:35:30 64° NW
Lacrosse 5 3.3 02:32:54 10° NNW 02:37:32 35° NE 02:42:10 10° ESE
Cosmos 968 Rocket 3.7 02:38:52 62° ENE 02:38:52 62° ENE 02:43:24 10° NNE
Cosmos 1633 Rocket 4.2 02:54:47 37° NNW 02:54:47 37° NNW 02:57:46 10° N
ERS-2 4.1 02:50:11 10° N 02:51:56 24° NNW 02:51:56 24° NNW
Cosmos 1980 Rocket 2.0 02:48:29 10° NNW 02:54:09 89° ENE 02:54:28 80° SSE
CENTAUR R/B 3.1 02:58:36 38° WNW 02:59:43 42° NW 03:06:04 10° NNE
BREEZE-M DEB (TANK) 3.8 02:59:45 69° SSW 03:00:26 80° SE 03:14:30 10° NE
CZ-2D R/B 3.4 03:02:27 10° NE 03:07:08 32° E 03:09:16 24° SE
Cosmos 2082 Rocket 4.3 03:06:50 14° WNW 03:07:45 14° NW 03:10:39 10° NNW
Cosmos 1777 Rocket 3.9 03:07:33 72° SSE 03:08:02 80° ESE 03:13:20 10° NNE
NPP 4.0 03:05:12 10° N 03:10:22 48° WNW 03:10:32 48° WNW
Cosmos 371 Rocket 3.3 03:05:48 10° NNW 03:10:40 78° ENE 03:11:14 67° SE
Cosmos 1470 Rocket 3.8 03:11:22 63° NW 03:11:22 63° NW 03:15:16 10° N
OAO 1 Rocket 4.4 03:11:03 58° WNW 03:12:06 82° N 03:17:30 10° E
SL-16 R/B 3.6 03:06:24 10° SE 03:12:12 42° ENE 03:18:02 10° N
CBERS-1 4.3 03:10:22 10° N 03:15:19 51° WNW 03:15:26 51° WNW
Cosmos 1697 Rocket 3.9 03:10:20 10° NW 03:13:41 28° WNW 03:13:41 28° WNW
Cosmos 1933 Rocket 3.8 03:16:11 58° NW 03:16:11 58° NW 03:20:00 10° N
ADEOS 3.4 03:11:09 10° N 03:16:21 73° WNW 03:16:54 66° WSW
Cosmos 1455 2.6 03:15:03 10° N 03:18:34 59° ENE 03:18:34 59° ENE
IRS-1D 3.9 03:17:37 10° NNE 03:22:55 62° E 03:24:41 40° SSE
Meteor 1-4 Rocket 3.0 03:19:27 10° N 03:22:38 62° N 03:22:38 62° N
ARIANE 5 R/B 2.5 03:19:45 10° NNE 03:24:51 73° ESE 03:26:09 49° S
Cosmos 1869 3.5 03:23:32 10° N 03:27:29 67° E 03:27:54 61° ESE
UNKNOWN OBJECT B 4.3 03:26:01 10° NE 03:29:26 31° E 03:30:37 26° SE
ERS-1 4.4 03:24:31 10° N 03:29:38 74° WNW 03:30:40 56° SW
GPS 2-05 Rocket1 4.0 03:32:05 36° E 03:32:05 36° E 03:34:20 10° E
Cosmos 2292 Rocket 3.7 03:32:20 43° N 03:32:20 43° N 03:34:37 10° N
Cosmos 2360 4.2 03:27:23 10° NNW 03:33:00 61° WSW 03:34:31 45° SSW
ATLAS 5 CENTAUR R/B 2.1 03:32:01 47° SSE 03:33:07 60° ESE 03:38:07 10° NE
Meteor 2-10 4.1 03:31:44 10° NNW 03:36:52 57° W 03:37:55 48° SW
Cosmos 1709 Rocket 4.1 03:37:42 41° SW 03:39:42 58° W 03:45:54 10° N
Okean O Rocket 3.2 03:38:50 10° NE 03:42:43 30° E 03:45:48 14° SSE
Cosmos 1626 3.0 03:47:26 34° WNW 03:47:26 34° WNW 03:50:27 10° NNW
Cosmos 1933 3.8 03:44:51 10° N 03:48:50 59° E 03:51:14 22° SSE
EO 1 Del DPAF 3.1 03:49:07 56° SSW 03:49:50 74° WSW 03:53:45 10° NNW
SL-16 R/B 2.1 03:47:30 10° NNW 03:53:11 80° WSW 03:58:49 10° SSE
Cosmos 1862 Rocket 4.1 03:50:11 10° NNW 03:54:20 38° W 03:54:34 38° W
Lacrosse 5 rocket 2.9 03:50:16 10° NNW 03:54:30 42° NE 03:58:51 10° ESE
MOS 1-B 4.3 03:48:52 10° NNE 03:54:40 88° WNW 03:57:58 27° SSW
UNK 3.6 03:52:59 21° SSE 03:56:04 89° ENE 04:00:39 10° NNW
Cosmos 1271 Rocket 3.9 03:54:25 10° NNW 03:56:57 27° WNW 03:56:57 27° WNW
Cosmos 2112 Rocket 4.3 03:56:19 10° NNW 04:01:30 68° ENE 04:06:39 10° SSE
Cosmos 2221 Rocket 3.6 03:58:38 10° N 04:03:09 88° E 04:06:39 17° S
Cosmos 2322 Rocket 2.2 04:01:24 10° NNW 04:06:52 54° WSW 04:12:03 11° S
Resurs 1-4 Rocket 2.2 04:01:37 10° N 04:06:53 63° WNW 04:09:44 27° SW
CZ-3 Stage 3 2.5 03:57:36 10° W 04:07:01 57° S 04:10:01 10° ESE
SL-08 ROCKET BODY 4.4 04:04:56 16° S 04:09:52 84° E 04:15:59 10° N
SEDSat Delta rocket 4.0 04:07:25 20° W 04:12:22 70° S 04:18:47 10° ESE
OAO 3 Rocket 3.2 04:12:20 20° W 04:15:32 79° N 04:20:16 10° E
Cosmos 1869 Rocket 3.7 04:13:57 29° SSW 04:15:56 55° W 04:20:15 10° N
Lacrosse 5 2.5 04:15:59 10° WNW 04:20:23 31° WSW 04:24:47 10° S
ASTRO F (AKARI) 4.2 04:18:04 13° SSE 04:20:59 86° WSW 04:24:14 10° NNW
Cosmos 2298 Rocket 4.0 04:21:17 19° SSW 04:25:11 80° WNW 04:30:32 10° NNE
SME Rocket 4.1 04:20:14 10° SSE 04:28:13 84° WSW 04:33:24 10° NNW
Meteor 1-26 Rocket 4.1 04:22:47 10° N 04:28:21 88° W 04:33:51 10° S
ATLAS 2A CENTAUR R/B 4.2 04:26:18 19° SW 04:33:07 60° SSE 05:39:52 10° E
Cosmos 2227 Rocket 4.4 04:32:07 10° SSE 04:36:21 22° E 04:40:36 10° NE
Cosmos 2360 Rocket 2.2 04:33:17 10° NNW 04:38:56 87° WSW 04:44:34 10° SSE
In-Cosmos 22 Rocket 4.0 04:34:24 11° SSW 04:39:30 71° W 04:44:51 10° N
CZ-4B R/B 3.2 04:37:28 10° N 04:42:55 77° WNW 04:48:27 10° SSW
Cosmos 2219 3.3 04:40:18 13° SSW 04:45:18 67° WNW 04:51:03 10° NNE
IRS-1C Rocket 4.5 04:40:55 10° N 04:45:58 47° WNW 04:50:40 12° SW
CZ-2D R/B 3.3 04:42:46 10° NNW 04:47:01 26° WNW 04:50:36 13° WSW
Cosmos 2322 3.7 04:43:50 10° NNW 04:49:33 72° WSW 04:55:13 10° SSE
Cosmos 1680 Rocket 4.2 04:44:58 10° NW 04:49:35 33° W 04:54:11 10° SSW
Cosmos 2154 Rocket 4.0 04:43:19 10° S 04:49:37 79° W 04:56:00 10° N
Cosmos 1733 Rocket 3.0 04:46:40 10° S 04:50:59 88° E 04:55:21 10° N
Sich 1 Rocket 4.5 04:47:06 10° SSE 04:51:21 50° E 04:55:36 10° NNE
Nadezhda 3 Rocket 4.0 04:46:01 10° N 04:52:13 86° E 04:58:21 10° S
MOZ.5/SAFIR/RUBIN 5/SL-8 3.7 04:47:50 10° SSE 04:52:30 85° W 04:57:13 10° NNW
Cosmos 990 Rocket 4.2 04:48:44 10° S 04:53:53 75° ESE 04:59:03 10° NNE
Thor Agena Rocket 3.6 04:48:43 10° S 04:53:57 65° WSW 04:59:13 10° NNW
Cosmos 389 Rocket 2.8 04:50:59 10° N 04:54:41 75° E 04:58:21 10° SSE
SL-16 R/B 3.5 04:50:47 10° SSW 04:55:53 26° W 05:01:01 10° NW
ISS -1.8 04:57:59 10° NNW 05:01:06 40° NE 05:04:12 10° ESE
H-2A R/B 3.3 04:48:01 10° W 05:01:19 33° SW 05:04:52 10° SSE
CZ-4B DEB 4.4 04:56:41 10° N 05:02:03 57° WNW 05:07:26 10° SSW
ATLAS CENTAUR R/B 3.0 05:00:08 10° NNW 05:04:33 43° ENE 05:08:36 10° SE
OE (NEXTSAT) 4.4 05:02:14 11° SW 05:05:39 83° SE 05:09:16 10° ENE
USA 229 DEB 4.0 04:59:33 10° SW 05:06:20 55° NW 05:13:11 10° NNE
USA 229 4.0 04:59:39 10° SW 05:06:26 56° NW 05:13:18 10° NNE
Cosmos 220 Rocket 3.9 05:05:03 10° SSW 05:09:16 84° WNW 05:13:33 10° NNE
GPS 2-05 Rocket1 3.1 05:05:54 10° W 05:09:17 67° N 05:12:48 10° E
Cosmos 1892 3.0 05:05:57 10° SSW 05:09:45 51° W 05:13:33 10° N
Cosmos 2297 Rocket 4.0 05:05:00 10° SSE 05:09:50 30° ESE 05:14:41 10° NE
Meteor 2-10 Rocket 3.5 05:08:17 10° N 05:13:21 87° W 05:18:33 10° S
GOES 2 Rocket 4.1 05:12:08 10° SW 05:15:49 28° SSE 05:19:28 10° ESE
CZ-4B R/B 3.7 05:12:12 10° N 05:15:52 34° WNW 05:19:40 10° SW
GENESIS II 4.5 05:13:11 10° NW 05:17:10 50° WSW 05:21:01 10° S
Cosmos 1898 Rocket 4.5 05:12:48 10° SW 05:17:20 30° WNW 05:21:52 10° N
COSMOS 2428 2.7 05:12:21 10° NNW 05:18:03 86° WSW 05:23:43 10° SSE
ATLAS 5 CENTAUR R/B 3.8 05:15:05 10° W 05:18:16 17° NW 05:21:36 10° N
Okean O Rocket 3.2 05:15:38 10° NNW 05:18:52 20° WNW 05:22:05 10° WSW
